| time (UTC) | temp F | wind direction | speed MPH | gust MPH | rain 1hr in | rain 24hr in | rain mn in | humidity % | barometer mb |
| 20260507025755 | 49 | 202 | 5.0 | 9.0 | 0.00 | 0.00 | 0.00 | 92 | 1014.7 |
| 20260507025255 | 50 | 180 | 3.0 | 4.0 | 0.00 | 0.00 | 0.00 | 92 | 1014.7 |
| 20260507024755 | 49 | 157 | 2.0 | 8.0 | 0.00 | 0.00 | 0.00 | 92 | 1014.7 |
| 20260507024255 | 49 | 202 | 4.0 | 6.0 | 0.00 | 0.00 | 0.00 | 92 | 1014.7 |
| 20260507023755 | 49 | 180 | 4.0 | 9.0 | 0.00 | 0.00 | 0.00 | 92 | 1014.7 |
| 20260507023255 | 49 | 202 | 4.0 | 6.0 | 0.00 | 0.00 | 0.00 | 92 | 1014.7 |
| 20260507022756 | 50 | 202 | 3.0 | 8.0 | 0.00 | 0.00 | 0.00 | 92 | 1014.7 |
| 20260507022256 | 50 | 202 | 5.0 | 7.0 | 0.00 | 0.00 | 0.00 | 92 | 1014.7 |
| 20260507021755 | 49 | 202 | 2.0 | 6.0 | 0.00 | 0.00 | 0.00 | 93 | 1014.6 |
| 20260507021256 | 49 | 202 | 4.0 | 5.0 | 0.00 | 0.00 | 0.00 | 93 | 1014.6 |
| 20260507020756 | 49 | 225 | 3.0 | 6.0 | 0.00 | 0.00 | 0.00 | 93 | 1014.6 |
| 20260507020256 | 49 | 202 | 5.0 | 5.0 | 0.00 | 0.00 | 0.00 | 93 | 1014.6 |
| 20260507015756 | 49 | 157 | 1.0 | 9.0 | 0.00 | 0.00 | 0.00 | 93 | 1014.6 |
| 20260507015256 | 49 | 202 | 3.0 | 4.0 | 0.00 | 0.00 | 0.00 | 93 | 1014.5 |
| 20260507014756 | 49 | 202 | 4.0 | 7.0 | 0.00 | 0.00 | 0.00 | 93 | 1014.5 |
| 20260507014256 | 49 | 225 | 5.0 | 5.0 | 0.00 | 0.00 | 0.00 | 93 | 1014.5 |
| 20260507013756 | 49 | 202 | 2.0 | 6.0 | 0.00 | 0.00 | 0.00 | 93 | 1014.5 |
| 20260507013256 | 48 | 157 | 5.0 | 5.0 | 0.00 | 0.00 | 0.00 | 93 | 1014.6 |
| 20260507012756 | 48 | 202 | 0.0 | 1.0 | 0.00 | 0.00 | 0.00 | 93 | 1014.6 |
| 20260507012256 | 48 | 225 | 0.0 | 0.0 | 0.00 | 0.00 | 0.00 | 93 | 1014.5 |
| 20260507011756 | 48 | 247 | 0.0 | 0.0 | 0.00 | 0.00 | 0.00 | 93 | 1014.5 |
| 20260507011256 | 48 | 270 | 0.0 | 57.0 | 0.00 | 0.00 | 0.00 | 93 | 1014.5 |
| 20260507010756 | 48 | 180 | 57.0 | 57.0 | 0.00 | 0.00 | 0.00 | 93 | 1014.5 |
| 20260507010256 | 48 | 225 | 2.0 | 2.0 | 0.00 | 0.00 | 0.00 | 93 | 1014.5 |
| 20260507005756 | 48 | 225 | 1.0 | 1.0 | 0.00 | 0.00 | 0.00 | 93 | 1014.5 |
| 20260507005256 | 48 | 225 | 1.0 | 2.0 | 0.00 | 0.00 | 0.00 | 93 | 1014.5 |
| 20260507004756 | 47 | 202 | 2.0 | 2.0 | 0.00 | 0.00 | 0.00 | 93 | 1014.5 |
| 20260507004256 | 47 | 247 | 0.0 | 2.0 | 0.00 | 0.00 | 0.00 | 93 | 1014.3 |
| 20260507003756 | 47 | 247 | 0.0 | 2.0 | 0.00 | 0.00 | 0.00 | 93 | 1014.3 |
| 20260507003256 | 47 | 247 | 2.0 | 2.0 | 0.00 | 0.00 | 0.00 | 93 | 1014.3 |
| 20260507002756 | 47 | 202 | 2.0 | 3.0 | 0.00 | 0.00 | 0.00 | 93 | 1014.3 |
| 20260507002256 | 47 | 202 | 1.0 | 2.0 | 0.00 | 0.00 | 0.00 | 93 | 1014.2 |
| 20260507001756 | 46 | 202 | 2.0 | 2.0 | 0.00 | 0.00 | 0.00 | 93 | 1014.2 |
| 20260507001256 | 48 | 202 | 0.0 | 0.0 | 0.00 | 0.00 | 0.00 | 93 | 1014.3 |
| 20260507000756 | 48 | 202 | 0.0 | 2.0 | 0.00 | 0.00 | 0.00 | 93 | 1014.3 |
| 20260507000256 | 49 | 202 | 2.0 | 2.0 | 0.00 | 0.00 | 0.00 | 93 | 1014.3 |
| 20260506235756 | 49 | 202 | 2.0 | 2.0 | 0.00 | 0.00 | 0.00 | 93 | 1014.3 |
| 20260506235256 | 49 | 202 | 2.0 | 5.0 | 0.00 | 0.00 | 0.00 | 93 | 1014.3 |
| 20260506234756 | 48 | 225 | 4.0 | 7.0 | 0.00 | 0.00 | 0.00 | 92 | 1014.3 |
| 20260506234256 | 47 | 180 | 2.0 | 2.0 | 0.00 | 0.00 | 0.00 | 92 | 1014.4 |
| 20260506233756 | 47 | 225 | 1.0 | 1.0 | 0.00 | 0.00 | 0.00 | 92 | 1014.4 |
| 20260506233256 | 47 | 202 | 0.0 | 2.0 | 0.00 | 0.00 | 0.00 | 92 | 1014.4 |
| 20260506232756 | 46 | 202 | 2.0 | 2.0 | 0.00 | 0.00 | 0.00 | 92 | 1014.4 |
| 20260506232256 | 46 | 180 | 0.0 | 2.0 | 0.00 | 0.00 | 0.00 | 92 | 1014.5 |
| 20260506231756 | 46 | 247 | 0.0 | 0.0 | 0.00 | 0.00 | 0.00 | 92 | 1014.4 |
| 20260506231256 | 46 | 225 | 0.0 | 1.0 | 0.00 | 0.00 | 0.00 | 92 | 1014.5 |
| 20260506230756 | 46 | 225 | 0.0 | 2.0 | 0.00 | 0.00 | 0.00 | 92 | 1014.5 |
| 20260506230256 | 46 | 225 | 2.0 | 2.0 | 0.00 | 0.00 | 0.00 | 92 | 1014.5 |
| 20260506225756 | 46 | 247 | 1.0 | 2.0 | 0.00 | 0.00 | 0.00 | 92 | 1014.5 |
| 20260506225256 | 46 | 202 | 0.0 | 3.0 | 0.00 | 0.00 | 0.00 | 91 | 1014.5 |
| 20260506224756 | 46 | 247 | 1.0 | 1.0 | 0.00 | 0.00 | 0.00 | 92 | 1014.6 |
| 20260506224256 | 46 | 247 | 1.0 | 1.0 | 0.00 | 0.00 | 0.00 | 91 | 1014.6 |
| 20260506223756 | 46 | 247 | 1.0 | 2.0 | 0.00 | 0.00 | 0.00 | 91 | 1014.8 |
| 20260506223256 | 46 | 225 | 0.0 | 1.0 | 0.00 | 0.00 | 0.00 | 91 | 1014.6 |
| 20260506222756 | 46 | 247 | 0.0 | 0.0 | 0.00 | 0.00 | 0.00 | 91 | 1014.6 |
| 20260506222256 | 47 | 247 | 0.0 | 0.0 | 0.00 | 0.00 | 0.00 | 91 | 1014.6 |
| 20260506221756 | 47 | 247 | 0.0 | 2.0 | 0.00 | 0.00 | 0.00 | 91 | 1014.7 |
| 20260506221256 | 48 | 270 | 0.0 | 1.0 | 0.00 | 0.00 | 0.00 | 92 | 1014.6 |
| 20260506220756 | 49 | 247 | 0.0 | 2.0 | 0.00 | 0.00 | 0.00 | 92 | 1014.6 |
| 20260506220256 | 51 | 225 | 2.0 | 4.0 | 0.00 | 0.00 | 0.00 | 92 | 1014.6 |
| 20260506215756 | 51 | 202 | 4.0 | 4.0 | 0.00 | 0.00 | 0.00 | 92 | 1014.6 |
| 20260506215256 | 51 | 202 | 2.0 | 6.0 | 0.00 | 0.00 | 0.00 | 92 | 1014.6 |
| 20260506214756 | 51 | 202 | 6.0 | 6.0 | 0.00 | 0.00 | 0.00 | 92 | 1014.6 |
| 20260506214256 | 51 | 202 | 3.0 | 5.0 | 0.00 | 0.00 | 0.00 | 92 | 1014.6 |
| 20260506213756 | 51 | 180 | 2.0 | 5.0 | 0.00 | 0.00 | 0.00 | 92 | 1014.5 |
| 20260506213256 | 51 | 202 | 2.0 | 5.0 | 0.00 | 0.00 | 0.00 | 92 | 1014.5 |
| 20260506212756 | 51 | 202 | 5.0 | 5.0 | 0.00 | 0.00 | 0.00 | 92 | 1014.5 |
| 20260506212256 | 51 | 180 | 2.0 | 2.0 | 0.00 | 0.00 | 0.00 | 92 | 1014.5 |
| 20260506211756 | 51 | 180 | 2.0 | 5.0 | 0.00 | 0.00 | 0.00 | 92 | 1014.4 |
| 20260506211256 | 51 | 180 | 2.0 | 4.0 | 0.00 | 0.00 | 0.00 | 92 | 1014.4 |
| 20260506210756 | 51 | 157 | 4.0 | 4.0 | 0.00 | 0.00 | 0.00 | 92 | 1014.4 |
| 20260506210256 | 51 | 180 | 4.0 | 5.0 | 0.00 | 0.00 | 0.00 | 92 | 1014.5 |
| 20260506205756 | 51 | 135 | 2.0 | 5.0 | 0.00 | 0.00 | 0.00 | 92 | 1014.5 |
| 20260506205256 | 51 | 202 | 4.0 | 6.0 | 0.00 | 0.00 | 0.00 | 91 | 1014.5 |
| 20260506204756 | 51 | 202 | 3.0 | 3.0 | 0.00 | 0.00 | 0.00 | 91 | 1014.5 |
| 20260506204256 | 52 | 157 | 2.0 | 8.0 | 0.00 | 0.00 | 0.00 | 91 | 1014.4 |
| 20260506203756 | 52 | 180 | 2.0 | 8.0 | 0.00 | 0.00 | 0.00 | 91 | 1014.4 |
| 20260506203256 | 52 | 157 | 3.0 | 7.0 | 0.00 | 0.00 | 0.00 | 91 | 1014.5 |
| 20260506202756 | 51 | 157 | 5.0 | 7.0 | 0.00 | 0.00 | 0.00 | 91 | 1014.5 |
| 20260506202256 | 51 | 135 | 5.0 | 6.0 | 0.00 | 0.00 | 0.00 | 91 | 1014.6 |
| 20260506201756 | 51 | 180 | 3.0 | 9.0 | 0.00 | 0.00 | 0.00 | 91 | 1014.6 |
| 20260506201256 | 51 | 180 | 4.0 | 6.0 | 0.00 | 0.00 | 0.00 | 91 | 1014.5 |
| 20260506200756 | 51 | 180 | 3.0 | 6.0 | 0.00 | 0.00 | 0.00 | 91 | 1014.4 |
| 20260506200256 | 51 | 202 | 1.0 | 6.0 | 0.00 | 0.00 | 0.00 | 91 | 1014.5 |
| 20260506195756 | 51 | 157 | 4.0 | 6.0 | 0.00 | 0.00 | 0.00 | 90 | 1014.5 |
| 20260506195256 | 51 | 180 | 4.0 | 6.0 | 0.00 | 0.00 | 0.00 | 90 | 1014.5 |
| 20260506194756 | 52 | 180 | 2.0 | 9.0 | 0.00 | 0.00 | 0.00 | 90 | 1014.5 |
| 20260506194256 | 52 | 202 | 5.0 | 5.0 | 0.00 | 0.00 | 0.00 | 90 | 1014.5 |
| 20260506193756 | 52 | 157 | 3.0 | 5.0 | 0.00 | 0.00 | 0.00 | 90 | 1014.5 |
| 20260506193256 | 52 | 180 | 3.0 | 5.0 | 0.00 | 0.00 | 0.00 | 90 | 1014.5 |
| 20260506192756 | 52 | 157 | 3.0 | 5.0 | 0.00 | 0.00 | 0.00 | 90 | 1014.5 |
| 20260506192256 | 52 | 157 | 3.0 | 6.0 | 0.00 | 0.00 | 0.00 | 89 | 1014.5 |
| 20260506191756 | 52 | 135 | 4.0 | 8.0 | 0.00 | 0.00 | 0.00 | 89 | 1014.5 |
| 20260506191256 | 52 | 180 | 3.0 | 6.0 | 0.00 | 0.00 | 0.00 | 89 | 1014.6 |
| 20260506190756 | 52 | 157 | 3.0 | 8.0 | 0.00 | 0.00 | 0.00 | 89 | 1014.6 |
| 20260506190256 | 52 | 157 | 6.0 | 7.0 | 0.00 | 0.00 | 0.00 | 89 | 1014.6 |
| 20260506185756 | 52 | 202 | 6.0 | 6.0 | 0.00 | 0.00 | 0.00 | 88 | 1014.5 |
| 20260506185256 | 53 | 135 | 3.0 | 6.0 | 0.00 | 0.00 | 0.00 | 88 | 1014.4 |
| 20260506184756 | 53 | 202 | 3.0 | 8.0 | 0.00 | 0.00 | 0.00 | 88 | 1014.5 |
| 20260506184256 | 53 | 180 | 4.0 | 6.0 | 0.00 | 0.00 | 0.00 | 88 | 1014.5 |
| 20260506183756 | 53 | 157 | 1.0 | 6.0 | 0.00 | 0.00 | 0.00 | 88 | 1014.5 |
| 20260506183256 | 53 | 157 | 4.0 | 7.0 | 0.00 | 0.00 | 0.00 | 88 | 1014.4 |
| 20260506182756 | 53 | 180 | 3.0 | 6.0 | 0.00 | 0.00 | 0.00 | 87 | 1014.4 |
| 20260506182256 | 53 | 157 | 5.0 | 7.0 | 0.00 | 0.00 | 0.00 | 87 | 1014.3 |
| 20260506181756 | 53 | 157 | 4.0 | 6.0 | 0.00 | 0.00 | 0.00 | 87 | 1014.3 |
| 20260506181256 | 53 | 180 | 4.0 | 6.0 | 0.00 | 0.00 | 0.00 | 86 | 1014.2 |
| 20260506180756 | 53 | 180 | 2.0 | 6.0 | 0.00 | 0.00 | 0.00 | 86 | 1014.2 |
| 20260506180256 | 53 | 157 | 3.0 | 8.0 | 0.00 | 0.00 | 0.00 | 85 | 1014.1 |
| 20260506175756 | 53 | 180 | 3.0 | 6.0 | 0.00 | 0.00 | 0.00 | 85 | 1014.1 |
| 20260506175256 | 53 | 180 | 2.0 | 6.0 | 0.00 | 0.00 | 0.00 | 84 | 1014.0 |
| 20260506174756 | 53 | 180 | 2.0 | 6.0 | 0.00 | 0.00 | 0.00 | 84 | 1013.9 |
| 20260506174256 | 54 | 157 | 2.0 | 6.0 | 0.00 | 0.00 | 0.00 | 84 | 1013.9 |
| 20260506173756 | 54 | 157 | 4.0 | 7.0 | 0.00 | 0.00 | 0.00 | 83 | 1013.7 |
| 20260506173256 | 54 | 157 | 6.0 | 8.0 | 0.00 | 0.00 | 0.00 | 83 | 1013.7 |
| 20260506172756 | 54 | 157 | 3.0 | 8.0 | 0.00 | 0.00 | 0.00 | 82 | 1013.7 |
| 20260506172256 | 54 | 157 | 6.0 | 7.0 | 0.00 | 0.00 | 0.00 | 82 | 1013.8 |
| 20260506171756 | 54 | 157 | 4.0 | 5.0 | 0.00 | 0.00 | 0.00 | 82 | 1013.8 |
| 20260506171256 | 54 | 157 | 2.0 | 6.0 | 0.00 | 0.00 | 0.00 | 82 | 1013.9 |
| 20260506170756 | 55 | 157 | 2.0 | 6.0 | 0.00 | 0.00 | 0.00 | 81 | 1013.8 |
| 20260506170256 | 55 | 135 | 3.0 | 6.0 | 0.00 | 0.00 | 0.00 | 81 | 1013.9 |
| 20260506165756 | 55 | 135 | 3.0 | 4.0 | 0.00 | 0.00 | 0.00 | 79 | 1013.8 |
| 20260506165256 | 56 | 157 | 4.0 | 6.0 | 0.00 | 0.00 | 0.00 | 79 | 1013.7 |
| 20260506164756 | 56 | 157 | 3.0 | 8.0 | 0.00 | 0.00 | 0.00 | 78 | 1013.8 |
| 20260506164256 | 57 | 157 | 5.0 | 6.0 | 0.00 | 0.00 | 0.00 | 78 | 1013.8 |
| 20260506163756 | 57 | 180 | 3.0 | 8.0 | 0.00 | 0.00 | 0.00 | 77 | 1013.7 |
| 20260506163256 | 58 | 135 | 4.0 | 5.0 | 0.00 | 0.00 | 0.00 | 76 | 1013.7 |
| 20260506162756 | 59 | 157 | 3.0 | 6.0 | 0.00 | 0.00 | 0.00 | 76 | 1013.7 |
| 20260506162256 | 59 | 157 | 3.0 | 5.0 | 0.00 | 0.00 | 0.00 | 75 | 1013.7 |
| 20260506161756 | 59 | 180 | 3.0 | 6.0 | 0.00 | 0.00 | 0.00 | 75 | 1013.7 |
| 20260506161256 | 60 | 157 | 3.0 | 7.0 | 0.00 | 0.00 | 0.00 | 74 | 1013.7 |
| 20260506160756 | 60 | 157 | 7.0 | 7.0 | 0.00 | 0.00 | 0.00 | 74 | 1013.7 |
| 20260506160256 | 60 | 180 | 2.0 | 9.0 | 0.00 | 0.00 | 0.00 | 73 | 1013.7 |
| 20260506155756 | 60 | 180 | 6.0 | 7.0 | 0.00 | 0.00 | 0.00 | 73 | 1013.7 |
| 20260506155256 | 60 | 157 | 4.0 | 8.0 | 0.00 | 0.00 | 0.00 | 72 | 1013.7 |
| 20260506154756 | 60 | 157 | 3.0 | 8.0 | 0.00 | 0.00 | 0.00 | 72 | 1013.7 |
| 20260506154256 | 60 | 157 | 4.0 | 8.0 | 0.00 | 0.00 | 0.00 | 71 | 1013.8 |
| 20260506153756 | 60 | 157 | 4.0 | 6.0 | 0.00 | 0.00 | 0.00 | 72 | 1013.8 |
| 20260506153256 | 60 | 135 | 6.0 | 7.0 | 0.00 | 0.00 | 0.00 | 72 | 1013.7 |
| 20260506152756 | 61 | 157 | 3.0 | 8.0 | 0.00 | 0.00 | 0.00 | 71 | 1013.7 |
| 20260506152256 | 61 | 135 | 3.0 | 8.0 | 0.00 | 0.00 | 0.00 | 71 | 1013.8 |
| 20260506151756 | 61 | 180 | 3.0 | 9.0 | 0.00 | 0.00 | 0.00 | 72 | 1013.9 |
| 20260506151256 | 61 | 157 | 4.0 | 9.0 | 0.00 | 0.00 | 0.00 | 71 | 1013.9 |
| 20260506150756 | 61 | 112 | 6.0 | 8.0 | 0.00 | 0.00 | 0.00 | 71 | 1013.9 |
| 20260506150303 | 61 | 135 | 5.0 | 9.0 | 0.00 | 0.00 | 0.00 | 71 | 1013.9 |
| 20260506145756 | 61 | 157 | 9.0 | 9.0 | 0.00 | 0.00 | 0.00 | 71 | 1014.0 |
| 20260506145256 | 61 | 157 | 8.0 | 11.0 | 0.00 | 0.00 | 0.00 | 69 | 1013.9 |
| 20260506144756 | 61 | 157 | 5.0 | 10.0 | 0.00 | 0.00 | 0.00 | 69 | 1013.9 |
| 20260506144256 | 61 | 180 | 9.0 | 10.0 | 0.00 | 0.00 | 0.00 | 68 | 1014.0 |
| 20260506143757 | 62 | 157 | 7.0 | 11.0 | 0.00 | 0.00 | 0.00 | 68 | 1013.9 |
| 20260506143257 | 62 | 180 | 5.0 | 10.0 | 0.00 | 0.00 | 0.00 | 68 | 1013.9 |
| 20260506142756 | 62 | 157 | 5.0 | 11.0 | 0.00 | 0.00 | 0.00 | 67 | 1013.9 |
| 20260506142257 | 62 | 157 | 5.0 | 8.0 | 0.00 | 0.00 | 0.00 | 68 | 1013.9 |
| 20260506141756 | 62 | 135 | 6.0 | 11.0 | 0.00 | 0.00 | 0.00 | 69 | 1013.9 |
| 20260506141257 | 63 | 135 | 5.0 | 10.0 | 0.00 | 0.00 | 0.00 | 69 | 1014.0 |
| 20260506140757 | 63 | 157 | 7.0 | 10.0 | 0.00 | 0.00 | 0.00 | 68 | 1014.1 |
| 20260506140257 | 63 | 135 | 8.0 | 10.0 | 0.00 | 0.00 | 0.00 | 68 | 1014.0 |
| 20260506135757 | 63 | 157 | 5.0 | 11.0 | 0.00 | 0.00 | 0.00 | 67 | 1014.0 |
| 20260506135257 | 63 | 157 | 8.0 | 11.0 | 0.00 | 0.00 | 0.00 | 67 | 1014.0 |
| 20260506134757 | 63 | 157 | 5.0 | 11.0 | 0.00 | 0.00 | 0.00 | 67 | 1014.1 |
| 20260506134257 | 63 | 135 | 7.0 | 11.0 | 0.00 | 0.00 | 0.00 | 66 | 1014.1 |
| 20260506133757 | 64 | 180 | 6.0 | 12.0 | 0.00 | 0.00 | 0.00 | 67 | 1014.1 |
| 20260506133257 | 64 | 157 | 8.0 | 11.0 | 0.00 | 0.00 | 0.00 | 67 | 1014.1 |
| 20260506132757 | 64 | 157 | 7.0 | 11.0 | 0.00 | 0.00 | 0.00 | 65 | 1014.0 |
| 20260506132257 | 64 | 135 | 8.0 | 12.0 | 0.00 | 0.00 | 0.00 | 65 | 1014.1 |
| 20260506131757 | 64 | 157 | 7.0 | 10.0 | 0.00 | 0.00 | 0.00 | 64 | 1014.1 |
| 20260506131257 | 65 | 157 | 8.0 | 12.0 | 0.00 | 0.00 | 0.00 | 62 | 1014.0 |
| 20260506130757 | 65 | 157 | 4.0 | 8.0 | 0.00 | 0.00 | 0.00 | 63 | 1014.1 |
| 20260506130257 | 65 | 157 | 4.0 | 12.0 | 0.00 | 0.00 | 0.00 | 63 | 1014.1 |
| 20260506125757 | 65 | 157 | 9.0 | 9.0 | 0.00 | 0.00 | 0.00 | 61 | 1014.1 |
| 20260506125257 | 65 | 135 | 4.0 | 10.0 | 0.00 | 0.00 | 0.00 | 61 | 1014.2 |
| 20260506124757 | 66 | 157 | 4.0 | 14.0 | 0.00 | 0.00 | 0.00 | 59 | 1014.2 |
| 20260506124257 | 66 | 180 | 9.0 | 10.0 | 0.00 | 0.00 | 0.00 | 60 | 1014.2 |
| 20260506123757 | 67 | 157 | 8.0 | 10.0 | 0.00 | 0.00 | 0.00 | 59 | 1014.2 |
| 20260506123257 | 67 | 135 | 4.0 | 8.0 | 0.00 | 0.00 | 0.00 | 60 | 1014.2 |
| 20260506122757 | 67 | 135 | 4.0 | 11.0 | 0.00 | 0.00 | 0.00 | 60 | 1014.3 |
| 20260506122257 | 67 | 157 | 4.0 | 8.0 | 0.00 | 0.00 | 0.00 | 59 | 1014.3 |
| 20260506121757 | 68 | 135 | 5.0 | 10.0 | 0.00 | 0.00 | 0.00 | 60 | 1014.3 |
| 20260506121257 | 68 | 157 | 5.0 | 9.0 | 0.00 | 0.00 | 0.00 | 59 | 1014.5 |
| 20260506120757 | 68 | 135 | 5.0 | 11.0 | 0.00 | 0.00 | 0.00 | 59 | 1014.4 |
| 20260506120257 | 68 | 180 | 8.0 | 8.0 | 0.00 | 0.00 | 0.00 | 59 | 1014.4 |
| 20260506115757 | 68 | 157 | 4.0 | 10.0 | 0.00 | 0.00 | 0.00 | 59 | 1014.5 |
| 20260506115257 | 69 | 157 | 4.0 | 9.0 | 0.00 | 0.00 | 0.00 | 58 | 1014.5 |
| 20260506114757 | 69 | 157 | 4.0 | 11.0 | 0.00 | 0.00 | 0.00 | 57 | 1014.5 |
| 20260506114257 | 69 | 180 | 7.0 | 11.0 | 0.00 | 0.00 | 0.00 | 56 | 1014.5 |
| 20260506113757 | 69 | 135 | 7.0 | 9.0 | 0.00 | 0.00 | 0.00 | 56 | 1014.5 |
| 20260506113257 | 69 | 157 | 8.0 | 12.0 | 0.00 | 0.00 | 0.00 | 56 | 1014.5 |
| 20260506112757 | 69 | 157 | 4.0 | 10.0 | 0.00 | 0.00 | 0.00 | 54 | 1014.6 |
| 20260506112257 | 69 | 135 | 6.0 | 10.0 | 0.00 | 0.00 | 0.00 | 56 | 1014.6 |
| 20260506111757 | 70 | 135 | 10.0 | 11.0 | 0.00 | 0.00 | 0.00 | 56 | 1014.7 |
| 20260506111257 | 70 | 157 | 8.0 | 11.0 | 0.00 | 0.00 | 0.00 | 55 | 1014.8 |
| 20260506110757 | 70 | 157 | 6.0 | 9.0 | 0.00 | 0.00 | 0.00 | 58 | 1014.7 |
| 20260506110257 | 69 | 135 | 9.0 | 9.0 | 0.00 | 0.00 | 0.00 | 57 | 1014.8 |
| 20260506105757 | 69 | 157 | 5.0 | 11.0 | 0.00 | 0.00 | 0.00 | 56 | 1014.7 |
| 20260506105257 | 69 | 180 | 6.0 | 10.0 | 0.00 | 0.00 | 0.00 | 56 | 1014.7 |
| 20260506104757 | 69 | 157 | 8.0 | 10.0 | 0.00 | 0.00 | 0.00 | 57 | 1014.8 |
| 20260506104257 | 69 | 135 | 4.0 | 10.0 | 0.00 | 0.00 | 0.00 | 56 | 1014.7 |
| 20260506103757 | 69 | 157 | 9.0 | 11.0 | 0.00 | 0.00 | 0.00 | 57 | 1014.8 |
| 20260506103257 | 69 | 157 | 6.0 | 8.0 | 0.00 | 0.00 | 0.00 | 57 | 1014.8 |
| 20260506102757 | 69 | 135 | 5.0 | 10.0 | 0.00 | 0.00 | 0.00 | 57 | 1014.7 |
| 20260506102257 | 69 | 135 | 6.0 | 9.0 | 0.00 | 0.00 | 0.00 | 57 | 1014.7 |
| 20260506101757 | 68 | 157 | 2.0 | 9.0 | 0.00 | 0.00 | 0.00 | 59 | 1014.7 |
| 20260506101257 | 68 | 180 | 4.0 | 11.0 | 0.00 | 0.00 | 0.00 | 59 | 1014.7 |
| 20260506100757 | 68 | 157 | 7.0 | 11.0 | 0.00 | 0.00 | 0.00 | 59 | 1014.7 |
| 20260506100257 | 68 | 135 | 5.0 | 10.0 | 0.00 | 0.00 | 0.00 | 60 | 1014.6 |
| 20260506095757 | 68 | 157 | 6.0 | 10.0 | 0.00 | 0.00 | 0.00 | 60 | 1014.6 |
| 20260506095257 | 68 | 157 | 8.0 | 10.0 | 0.00 | 0.00 | 0.00 | 59 | 1014.5 |
| 20260506094757 | 68 | 180 | 7.0 | 9.0 | 0.00 | 0.00 | 0.00 | 60 | 1014.6 |
| 20260506094257 | 68 | 180 | 7.0 | 10.0 | 0.00 | 0.00 | 0.00 | 59 | 1014.7 |
| 20260506093757 | 68 | 157 | 2.0 | 10.0 | 0.00 | 0.00 | 0.00 | 60 | 1014.6 |
| 20260506093257 | 68 | 135 | 5.0 | 9.0 | 0.00 | 0.00 | 0.00 | 60 | 1014.7 |
| 20260506092757 | 68 | 135 | 5.0 | 12.0 | 0.00 | 0.00 | 0.00 | 59 | 1014.7 |
| 20260506092257 | 69 | 135 | 7.0 | 9.0 | 0.00 | 0.00 | 0.00 | 58 | 1014.7 |
| 20260506091757 | 69 | 157 | 6.0 | 10.0 | 0.00 | 0.00 | 0.00 | 59 | 1014.6 |
| 20260506091257 | 69 | 157 | 4.0 | 9.0 | 0.00 | 0.00 | 0.00 | 60 | 1014.6 |
| 20260506090757 | 69 | 157 | 5.0 | 9.0 | 0.00 | 0.00 | 0.00 | 59 | 1014.6 |
| 20260506090257 | 69 | 157 | 7.0 | 10.0 | 0.00 | 0.00 | 0.00 | 60 | 1014.6 |
| 20260506085757 | 69 | 157 | 5.0 | 9.0 | 0.00 | 0.00 | 0.00 | 60 | 1014.5 |
| 20260506085257 | 69 | 135 | 5.0 | 8.0 | 0.00 | 0.00 | 0.00 | 59 | 1014.5 |
| 20260506084757 | 69 | 157 | 4.0 | 11.0 | 0.00 | 0.00 | 0.00 | 59 | 1014.5 |
| 20260506084257 | 70 | 180 | 5.0 | 8.0 | 0.00 | 0.00 | 0.00 | 59 | 1014.4 |
| 20260506083757 | 70 | 112 | 3.0 | 10.0 | 0.00 | 0.00 | 0.00 | 58 | 1014.4 |
| 20260506083257 | 70 | 180 | 4.0 | 7.0 | 0.00 | 0.00 | 0.00 | 59 | 1014.4 |
| 20260506082757 | 70 | 180 | 4.0 | 9.0 | 0.00 | 0.00 | 0.00 | 58 | 1014.4 |
| 20260506082257 | 70 | 157 | 3.0 | 9.0 | 0.00 | 0.00 | 0.00 | 59 | 1014.2 |
| 20260506081757 | 70 | 157 | 3.0 | 8.0 | 0.00 | 0.00 | 0.00 | 58 | 1014.3 |
| 20260506081257 | 70 | 157 | 5.0 | 10.0 | 0.00 | 0.00 | 0.00 | 56 | 1014.3 |
| 20260506080757 | 70 | 157 | 4.0 | 9.0 | 0.00 | 0.00 | 0.00 | 56 | 1014.3 |
| 20260506080257 | 70 | 157 | 3.0 | 6.0 | 0.00 | 0.00 | 0.00 | 57 | 1014.2 |
| 20260506073257 | 69 | 135 | 4.0 | 6.0 | 0.00 | 0.00 | 0.00 | 54 | 1014.1 |
| 20260506072757 | 70 | 112 | 5.0 | 9.0 | 0.00 | 0.00 | 0.00 | 54 | 1014.1 |
| 20260506072257 | 70 | 157 | 4.0 | 7.0 | 0.00 | 0.00 | 0.00 | 54 | 1014.1 |
| 20260506071757 | 70 | 112 | 4.0 | 6.0 | 0.00 | 0.00 | 0.00 | 53 | 1014.0 |
| 20260506071257 | 70 | 157 | 6.0 | 6.0 | 0.00 | 0.00 | 0.00 | 53 | 1014.0 |
| 20260506070757 | 70 | 157 | 2.0 | 6.0 | 0.00 | 0.00 | 0.00 | 52 | 1013.9 |
| 20260506070257 | 70 | 157 | 4.0 | 6.0 | 0.00 | 0.00 | 0.00 | 50 | 1013.8 |
| 20260506062257 | 77 | 157 | 1.0 | 3.0 | 0.00 | 0.00 | 0.00 | 37 | 1013.5 |
| 20260506061757 | 77 | 157 | 1.0 | 3.0 | 0.00 | 0.00 | 0.00 | 39 | 1013.5 |
| 20260506061257 | 78 | 135 | 0.0 | 2.0 | 0.00 | 0.00 | 0.00 | 38 | 1013.3 |
| 20260506060757 | 78 | 157 | 2.0 | 2.0 | 0.00 | 0.00 | 0.00 | 39 | 1013.4 |
| 20260506060257 | 78 | 180 | 1.0 | 2.0 | 0.00 | 0.00 | 0.00 | 40 | 1013.3 |
| 20260506051257 | 69 | 292 | 0.0 | 1.0 | 0.00 | 0.00 | 0.00 | 49 | 1013.1 |
| 20260506050757 | 70 | 247 | 0.0 | 1.0 | 0.00 | 0.00 | 0.00 | 48 | 1013.2 |
| 20260506050257 | 71 | 270 | 0.0 | 1.0 | 0.00 | 0.00 | 0.00 | 48 | 1013.1 |
| 20260506044757 | 66 | 22 | 0.0 | 0.0 | 0.00 | 0.00 | 0.00 | 55 | 1013.0 |
| 20260506044257 | 64 | 0 | 0.0 | 0.0 | 0.00 | 0.00 | 0.00 | 58 | 1012.9 |
| 20260506043757 | 62 | 0 | 0.0 | 0.0 | 0.00 | 0.00 | 0.00 | 61 | 1013.0 |
| 20260506043257 | 60 | 0 | 0.0 | 1.0 | 0.00 | 0.00 | 0.00 | 64 | 1012.9 |
| 20260506042757 | 59 | 22 | 0.0 | 1.0 | 0.00 | 0.00 | 0.00 | 65 | 1013.0 |
| 20260506042257 | 58 | 22 | 0.0 | 2.0 | 0.00 | 0.00 | 0.00 | 67 | 1012.9 |
| 20260506041757 | 57 | 22 | 0.0 | 2.0 | 0.00 | 0.00 | 0.00 | 68 | 1012.9 |
| 20260506041257 | 57 | 22 | 2.0 | 2.0 | 0.00 | 0.00 | 0.00 | 68 | 1012.8 |
| 20260506040757 | 56 | 22 | 0.0 | 1.0 | 0.00 | 0.00 | 0.00 | 69 | 1012.7 |
| 20260506040257 | 55 | 22 | 0.0 | 1.0 | 0.00 | 0.00 | 0.00 | 69 | 1012.7 |
| 20260506035757 | 54 | 22 | 0.0 | 0.0 | 0.00 | 0.00 | 0.00 | 70 | 1012.5 |
| 20260506035257 | 52 | 45 | 0.0 | 0.0 | 0.00 | 0.00 | 0.00 | 73 | 1012.5 |
| 20260506034757 | 51 | 45 | 0.0 | 0.0 | 0.00 | 0.00 | 0.00 | 74 | 1012.4 |
| 20260506034257 | 49 | 45 | 0.0 | 0.0 | 0.00 | 0.00 | 0.00 | 78 | 1012.4 |
| 20260506033757 | 47 | 22 | 0.0 | 0.0 | 0.00 | 0.00 | 0.00 | 81 | 1012.4 |
| 20260506033257 | 44 | 0 | 0.0 | 0.0 | 0.00 | 0.00 | 0.00 | 84 | 1012.4 |
| 20260506032757 | 42 | 0 | 0.0 | 0.0 | 0.00 | 0.00 | 0.00 | 84 | 1012.4 |
| 20260506032257 | 41 | 0 | 0.0 | 0.0 | 0.00 | 0.00 | 0.00 | 84 | 1012.4 |
| 20260506031757 | 40 | 0 | 0.0 | 0.0 | 0.00 | 0.00 | 0.00 | 84 | 1012.4 |
| 20260506031257 | 40 | 0 | 0.0 | 0.0 | 0.00 | 0.00 | 0.00 | 84 | 1012.3 |
| 20260506030757 | 40 | 0 | 0.0 | 0.0 | 0.00 | 0.00 | 0.00 | 85 | 1012.4 |
| 20260506030258 | 40 | 337 | 0.0 | 1.0 | 0.00 | 0.00 | 0.00 | 85 | 1012.3 |